DW1770 Weather Reports


Display with metric or nautical units.
time (UTC)temp
F
wind
direction
speed
MPH
gust
MPH
rain 1hr
in
rain 24hr
in
rain mn
in
humidity
%
barometer
mb
20230203064546 28 0.0 0.0 0.00 0.00 0.00 56 1001.3
20230203063049 28 0.0 0.0 0.00 0.00 0.00 56 1001.6
20230203061544 27 0.0 0.0 0.00 0.00 0.00 56 1001.7
20230203060051 27 0.0 0.0 0.00 0.00 0.00 56 1001.7
20230203054551 28 0.0 0.0 0.00 0.00 0.00 56 1001.9
20230203053053 28 0.0 0.0 0.00 0.00 0.00 55 1002.2
20230203051600 28 0.0 0.0 0.00 0.00 0.00 56 1002.6
20230203050053 27 0.0 0.0 0.00 0.00 0.00 58 1002.8
20230203044549 27 0.0 0.0 0.00 0.00 0.00 59 1002.9
20230203043054 27 0.0 0.0 0.00 0.00 0.00 60 1003.2
20230203041606 27 0.0 0.0 0.00 0.00 0.00 61 1003.4
20230203040049 27 0.0 0.0 0.00 0.00 0.00 61 1003.6
20230203034601 27 0.0 0.0 0.00 0.00 0.00 61 1004.0
20230203033100 27 0.0 0.0 0.00 0.00 0.00 61 1004.4
20230203031555 27 0.0 0.0 0.00 0.00 0.00 60 1004.8
20230203030053 28 0.0 0.0 0.00 0.00 0.00 60 1005.0
20230203024559 28 0.0 0.0 0.00 0.00 0.00 59 1005.2
20230203023105 28 0.0 0.0 0.00 0.00 0.00 59 1005.5
20230203021600 28 0.0 0.0 0.00 0.00 0.00 58 1005.8
20230203020100 28 0.0 0.0 0.00 0.00 0.00 58 1006.1
20230203014558 29 0.0 0.0 0.00 0.00 0.00 57 1006.4
20230203013117 29 0.0 0.0 0.00 0.00 0.00 56 1006.5
20230203011552 29 0.0 0.0 0.00 0.00 0.00 55 1006.9
20230203010047 29 0.0 0.0 0.00 0.00 0.00 54 1007.3
20230203004552 30 0.0 0.0 0.00 0.00 0.00 53 1007.7
20230203003048 30 0.0 0.0 0.00 0.00 0.00 52 1007.7
20230203001547 30 0.0 0.0 0.00 0.00 0.00 51 1007.8
20230203000054 30 0.0 0.0 0.00 0.00 0.00 49 1008.1
20230202234549 30 0.0 0.0 0.00 0.00 0.00 49 1008.7
20230202233042 30 0.0 0.0 0.00 0.00 0.00 47 1008.8
20230202231556 31 0.0 0.0 0.00 0.00 0.00 47 1009.0
20230202230056 31 0.0 0.0 0.00 0.00 0.00 46 1009.4
20230202224548 31 0.0 0.0 0.00 0.00 0.00 46 1009.6
20230202223059 32 0.0 0.0 0.00 0.00 0.00 44 1010.0
20230202221555 32 0.0 0.0 0.00 0.00 0.00 44 1010.4
20230202220101 33 0.0 0.0 0.00 0.00 0.00 42 1010.9
20230202214558 33 0.0 0.0 0.00 0.00 0.00 42 1010.9
20230202213058 34 0.0 0.0 0.00 0.00 0.00 41 1010.6
20230202211601 34 0.0 0.0 0.00 0.00 0.00 40 1010.4
20230202210057 35 0.0 0.0 0.00 0.00 0.00 41 1010.8
20230202204556 35 0.0 0.0 0.00 0.00 0.00 39 1011.1
20230202203057 34 0.0 0.0 0.00 0.00 0.00 41 1011.4
20230202201601 34 0.0 0.0 0.00 0.00 0.00 40 1011.6
20230202200055 34 0.0 0.0 0.00 0.00 0.00 42 1011.9
20230202194601 35 0.0 0.0 0.00 0.00 0.00 41 1012.2
20230202193056 34 0.0 0.0 0.00 0.00 0.00 42 1012.7
20230202191550 34 0.0 0.0 0.00 0.00 0.00 40 1012.9
20230202190052 34 0.0 0.0 0.00 0.00 0.00 43 1013.3
20230202184601 33 0.0 0.0 0.00 0.00 0.00 46 1013.5
20230202183107 33 0.0 0.0 0.00 0.00 0.00 49 1014.0
20230202181548 33 0.0 0.0 0.00 0.00 0.00 49 1014.5
20230202180057 33 0.0 0.0 0.00 0.00 0.00 46 1015.0
20230202174545 32 0.0 0.0 0.00 0.00 0.00 49 1015.5
20230202173051 31 0.0 0.0 0.00 0.00 0.00 51 1016.0
20230202171553 31 0.0 0.0 0.00 0.00 0.00 53 1016.7
20230202170049 30 0.0 0.0 0.00 0.00 0.00 56 1017.4
20230202164602 30 0.0 0.0 0.00 0.00 0.00 55 1017.9
20230202163050 29 0.0 0.0 0.00 0.00 0.00 56 1018.2
20230202161555 29 0.0 0.0 0.00 0.00 0.00 57 1018.6
20230202160057 28 0.0 0.0 0.00 0.00 0.00 59 1018.9
20230202154553 28 0.0 0.0 0.00 0.00 0.00 58 1019.4
20230202153053 27 0.0 0.0 0.00 0.00 0.00 59 1019.6
20230202151550 27 0.0 0.0 0.00 0.00 0.00 60 1019.8
20230202150050 26 0.0 0.0 0.00 0.00 0.00 61 1019.6
20230202144553 25 0.0 0.0 0.00 0.00 0.00 62 1020.0
20230202143053 25 0.0 0.0 0.00 0.00 0.00 62 1020.1
20230202141550 24 0.0 0.0 0.00 0.00 0.00 63 1020.3
20230202140056 24 0.0 0.0 0.00 0.00 0.00 64 1020.3
20230202134553 23 0.0 0.0 0.00 0.00 0.00 65 1020.4
20230202133053 23 0.0 0.0 0.00 0.00 0.00 66 1020.5
20230202131552 22 0.0 0.0 0.00 0.00 0.00 66 1020.3
20230202130053 22 0.0 0.0 0.00 0.00 0.00 68 1020.5
20230202124551 21 0.0 0.0 0.00 0.00 0.00 68 1020.7
20230202123048 21 0.0 0.0 0.00 0.00 0.00 69 1020.8
20230202121547 21 0.0 0.0 0.00 0.00 0.00 69 1021.1
20230202120054 20 0.0 0.0 0.00 0.00 0.00 70 1021.1
20230202114554 20 0.0 0.0 0.00 0.00 0.00 70 1021.2
20230202113054 20 0.0 0.0 0.00 0.00 0.00 69 1021.3
20230202111556 20 0.0 0.0 0.00 0.00 0.00 69 1021.4
20230202110057 20 0.0 0.0 0.00 0.00 0.00 69 1021.2
20230202104554 20 0.0 0.0 0.00 0.00 0.00 67 1021.2
20230202103053 20 0.0 0.0 0.00 0.00 0.00 66 1021.3
20230202101557 20 0.0 0.0 0.00 0.00 0.00 66 1021.4
20230202100101 20 0.0 0.0 0.00 0.00 0.00 67 1021.5
20230202094554 19 0.0 0.0 0.00 0.00 0.00 66 1021.7
20230202093052 19 0.0 0.0 0.00 0.00 0.00 66 1021.7
20230202091551 19 0.0 0.0 0.00 0.00 0.00 67 1021.7
20230202090048 19 0.0 0.0 0.00 0.00 0.00 67 1021.7
20230202084547 19 0.0 0.0 0.00 0.00 0.00 65 1021.5
20230202083050 19 0.0 0.0 0.00 0.00 0.00 64 1021.7
20230202081552 19 0.0 0.0 0.00 0.00 0.00 64 1021.6
20230202080042 19 0.0 0.0 0.00 0.00 0.00 64 1022.0
20230202074545 19 0.0 0.0 0.00 0.00 0.00 64 1022.1
20230202073055 19 0.0 0.0 0.00 0.00 0.00 63 1022.0
20230202071559 19 0.0 0.0 0.00 0.00 0.00 64 1022.2
20230202070054 19 0.0 0.0 0.00 0.00 0.00 64 1022.5